| time (UTC) | temp F | wind direction | speed knots | gust knots | rain 1hr in | rain 24hr in | rain mn in | humidity % | barometer mb |
| 20260904035031 | 73 | 306 | 2.6 | 9.6 | 0.00 | 0.00 | 0.00 | 43 | 1017.3 |
| 20260904034531 | 72 | 246 | 0.9 | 10.4 | 0.00 | 0.00 | 0.00 | 45 | 1017.3 |
| 20260904034029 | 73 | 223 | 6.1 | 10.4 | 0.00 | 0.00 | 0.00 | 43 | 1017.4 |
| 20260904033529 | 73 | 329 | 1.7 | 8.7 | 0.00 | 0.00 | 0.00 | 45 | 1017.5 |
| 20260904033030 | 73 | 252 | 4.3 | 9.6 | 0.00 | 0.00 | 0.00 | 44 | 1017.6 |
| 20260904032528 | 73 | 292 | 3.5 | 10.4 | 0.00 | 0.00 | 0.00 | 44 | 1017.6 |
| 20260904032027 | 73 | 249 | 4.3 | 10.4 | 0.00 | 0.00 | 0.00 | 43 | 1017.7 |
| 20260904031535 | 72 | 15 | 2.6 | 8.7 | 0.00 | 0.00 | 0.00 | 44 | 1017.7 |
| 20260904031025 | 72 | 242 | 3.5 | 8.7 | 0.00 | 0.00 | 0.00 | 44 | 1017.6 |
| 20260904030524 | 71 | 265 | 2.6 | 8.7 | 0.00 | 0.00 | 0.00 | 45 | 1017.7 |
| 20260904030025 | 71 | 237 | 3.5 | 8.7 | 0.00 | 0.00 | 0.00 | 44 | 1017.9 |
| 20260904025524 | 71 | 273 | 3.5 | 9.6 | 0.00 | 0.00 | 0.00 | 45 | 1018.0 |
| 20260904025022 | 72 | 275 | 5.2 | 9.6 | 0.00 | 0.00 | 0.00 | 43 | 1018.0 |
| 20260904024522 | 72 | 5 | 1.7 | 7.0 | 0.00 | 0.00 | 0.00 | 44 | 1018.2 |
| 20260904024023 | 72 | 325 | 2.6 | 7.8 | 0.00 | 0.00 | 0.00 | 44 | 1018.4 |
| 20260904023519 | 71 | 286 | 0.9 | 7.8 | 0.00 | 0.00 | 0.00 | 46 | 1018.5 |
| 20260904023019 | 70 | 287 | 2.6 | 8.7 | 0.00 | 0.00 | 0.00 | 45 | 1018.5 |
| 20260904022518 | 70 | 253 | 3.5 | 8.7 | 0.00 | 0.00 | 0.00 | 45 | 1018.6 |
| 20260904022019 | 70 | 240 | 1.7 | 7.0 | 0.00 | 0.00 | 0.00 | 46 | 1018.8 |
| 20260904021523 | 70 | 178 | 0.9 | 7.8 | 0.00 | 0.00 | 0.00 | 46 | 1018.9 |
| 20260904021015 | 70 | 171 | 0.9 | 8.7 | 0.00 | 0.00 | 0.00 | 45 | 1019.0 |
| 20260904020515 | 70 | 281 | 1.7 | 8.7 | 0.00 | 0.00 | 0.00 | 49 | 1019.1 |
| 20260904020017 | 70 | 308 | 4.3 | 7.8 | 0.00 | 0.00 | 0.00 | 46 | 1019.2 |
| 20260904015518 | 69 | 84 | 0.9 | 7.8 | 0.00 | 0.00 | 0.00 | 48 | 1019.4 |
| 20260904015013 | 69 | 216 | 1.7 | 7.8 | 0.00 | 0.00 | 0.00 | 48 | 1019.5 |
| 20260904014513 | 69 | 236 | 1.7 | 6.1 | 0.00 | 0.00 | 0.00 | 49 | 1019.5 |
| 20260904014014 | 69 | 240 | 1.7 | 5.2 | 0.00 | 0.00 | 0.00 | 49 | 1019.6 |
| 20260904013510 | 69 | 171 | 1.7 | 6.1 | 0.00 | 0.00 | 0.00 | 49 | 1019.5 |
| 20260904013012 | 68 | 238 | 2.6 | 6.1 | 0.00 | 0.00 | 0.00 | 50 | 1019.5 |
| 20260904012509 | 68 | 204 | 2.6 | 7.0 | 0.00 | 0.00 | 0.00 | 49 | 1019.7 |
| 20260904012009 | 68 | 284 | 2.6 | 7.0 | 0.00 | 0.00 | 0.00 | 49 | 1019.8 |
| 20260904011508 | 68 | 228 | 0.9 | 5.2 | 0.00 | 0.00 | 0.00 | 50 | 1019.8 |
| 20260904011007 | 68 | 219 | 2.6 | 5.2 | 0.00 | 0.00 | 0.00 | 50 | 1019.9 |
| 20260904010506 | 68 | 154 | 1.7 | 4.3 | 0.00 | 0.00 | 0.00 | 50 | 1020.0 |
| 20260904010006 | 68 | 191 | 1.7 | 4.3 | 0.00 | 0.00 | 0.00 | 50 | 1020.1 |
| 20260904005508 | 68 | 159 | 0.9 | 4.3 | 0.00 | 0.00 | 0.00 | 50 | 1020.3 |
| 20260904005005 | 68 | 136 | 0.0 | 3.5 | 0.00 | 0.00 | 0.00 | 50 | 1020.3 |
| 20260904004504 | 67 | 136 | 0.9 | 6.1 | 0.00 | 0.00 | 0.00 | 51 | 1020.4 |
| 20260904004003 | 67 | 230 | 1.7 | 6.1 | 0.00 | 0.00 | 0.00 | 52 | 1020.6 |
| 20260904003602 | 67 | 165 | 0.9 | 2.6 | 0.00 | 0.00 | 0.00 | 52 | 1020.7 |
| 20260904003002 | 67 | 324 | 0.0 | 5.2 | 0.00 | 0.00 | 0.00 | 51 | 1020.7 |
| 20260904002502 | 67 | 262 | 1.7 | 5.2 | 0.00 | 0.00 | 0.00 | 52 | 1020.8 |
| 20260904002101 | 67 | 216 | 1.7 | 5.2 | 0.00 | 0.00 | 0.00 | 52 | 1020.8 |
| 20260904002002 | 67 | 176 | 1.7 | 3.5 | 0.00 | 0.00 | 0.00 | 52 | 1020.9 |
| 20260904001605 | 67 | 44 | 0.9 | 3.5 | 0.00 | 0.00 | 0.00 | 53 | 1020.9 |
| 20260904001058 | 67 | 140 | 0.0 | 5.2 | 0.00 | 0.00 | 0.00 | 53 | 1021.0 |
| 20260904000557 | 66 | 170 | 1.7 | 7.8 | 0.00 | 0.00 | 0.00 | 53 | 1020.9 |
| 20260904000107 | 66 | 225 | 1.7 | 7.8 | 0.00 | 0.00 | 0.00 | 53 | 1020.9 |
| 20260903235556 | 66 | 163 | 0.9 | 4.3 | 0.00 | 0.00 | 0.00 | 54 | 1021.0 |
| 20260903235054 | 66 | 186 | 0.0 | 6.1 | 0.00 | 0.00 | 0.00 | 54 | 1021.1 |
| 20260903234554 | 65 | 124 | 0.9 | 7.0 | 0.00 | 0.00 | 0.00 | 55 | 1021.1 |
| 20260903234054 | 65 | 211 | 2.6 | 7.0 | 0.00 | 0.00 | 0.00 | 54 | 1021.1 |
| 20260903233553 | 65 | 171 | 1.7 | 6.1 | 0.00 | 0.00 | 0.00 | 54 | 1021.2 |
| 20260903233053 | 65 | 146 | 2.6 | 6.1 | 0.00 | 0.00 | 0.00 | 54 | 1021.2 |
| 20260903232551 | 65 | 229 | 0.9 | 5.2 | 0.00 | 0.00 | 0.00 | 56 | 1021.3 |
| 20260903232051 | 64 | 175 | 1.7 | 5.2 | 0.00 | 0.00 | 0.00 | 56 | 1021.2 |
| 20260903231550 | 64 | 139 | 1.7 | 7.8 | 0.00 | 0.00 | 0.00 | 56 | 1021.3 |
| 20260903231052 | 64 | 159 | 3.5 | 7.8 | 0.00 | 0.00 | 0.00 | 56 | 1021.4 |
| 20260903230547 | 64 | 215 | 1.7 | 7.0 | 0.00 | 0.00 | 0.00 | 56 | 1021.2 |
| 20260903230052 | 63 | 142 | 2.6 | 7.0 | 0.00 | 0.00 | 0.00 | 57 | 1021.3 |
| 20260903225547 | 63 | 200 | 2.6 | 4.3 | 0.00 | 0.00 | 0.00 | 58 | 1021.2 |
| 20260903225050 | 63 | 198 | 0.9 | 4.3 | 0.00 | 0.00 | 0.00 | 60 | 1021.4 |
| 20260903224546 | 63 | 127 | 1.7 | 4.3 | 0.00 | 0.00 | 0.00 | 59 | 1021.3 |
| 20260903224046 | 62 | 179 | 0.9 | 4.3 | 0.00 | 0.00 | 0.00 | 60 | 1021.2 |
| 20260903223546 | 62 | 210 | 0.0 | 4.3 | 0.00 | 0.00 | 0.00 | 61 | 1021.3 |
| 20260903223046 | 62 | 231 | 1.7 | 4.3 | 0.00 | 0.00 | 0.00 | 60 | 1021.3 |
| 20260903222545 | 62 | 185 | 0.0 | 6.1 | 0.00 | 0.00 | 0.00 | 61 | 1021.3 |
| 20260903222045 | 61 | 290 | 0.9 | 6.1 | 0.00 | 0.00 | 0.00 | 61 | 1021.2 |
| 20260903221545 | 61 | 209 | 0.9 | 2.6 | 0.00 | 0.00 | 0.00 | 62 | 1021.1 |
| 20260903221043 | 61 | 220 | 0.9 | 5.2 | 0.00 | 0.00 | 0.00 | 62 | 1021.1 |
| 20260903220543 | 61 | 275 | 1.7 | 4.3 | 0.00 | 0.00 | 0.00 | 61 | 1021.2 |
| 20260903220043 | 60 | 269 | 0.9 | 3.5 | 0.00 | 0.00 | 0.00 | 62 | 1021.0 |
| 20260903215543 | 60 | 250 | 1.7 | 3.5 | 0.00 | 0.00 | 0.00 | 62 | 1021.1 |
| 20260903215043 | 60 | 243 | 0.0 | 4.3 | 0.00 | 0.00 | 0.00 | 63 | 1021.1 |
| 20260903214555 | 60 | 243 | 0.9 | 4.3 | 0.00 | 0.00 | 0.00 | 63 | 1021.0 |
| 20260903214042 | 59 | 240 | 1.7 | 4.3 | 0.00 | 0.00 | 0.00 | 63 | 1020.9 |
| 20260903213539 | 59 | 251 | 0.9 | 2.6 | 0.00 | 0.00 | 0.00 | 63 | 1021.1 |
| 20260903213045 | 59 | 273 | 0.0 | 3.5 | 0.00 | 0.00 | 0.00 | 65 | 1021.0 |
| 20260903212536 | 59 | 271 | 1.7 | 3.5 | 0.00 | 0.00 | 0.00 | 65 | 1020.8 |
| 20260903212035 | 58 | 264 | 0.9 | 2.6 | 0.00 | 0.00 | 0.00 | 66 | 1020.7 |
| 20260903211535 | 58 | 295 | 0.9 | 1.7 | 0.00 | 0.00 | 0.00 | 66 | 1020.8 |
| 20260903211032 | 58 | 295 | 0.9 | 3.5 | 0.00 | 0.00 | 0.00 | 66 | 1020.8 |
| 20260903210531 | 58 | 295 | 1.7 | 3.5 | 0.00 | 0.00 | 0.00 | 67 | 1020.6 |
| 20260903210029 | 58 | 292 | 1.7 | 2.6 | 0.00 | 0.00 | 0.00 | 68 | 1020.5 |
| 20260903205527 | 57 | 292 | 1.7 | 2.6 | 0.00 | 0.00 | 0.00 | 69 | 1020.5 |
| 20260903205028 | 57 | 292 | 1.7 | 2.6 | 0.00 | 0.00 | 0.00 | 69 | 1020.5 |
| 20260903204526 | 57 | 252 | 0.9 | 2.6 | 0.00 | 0.00 | 0.00 | 70 | 1020.4 |
| 20260903204025 | 57 | 250 | 1.7 | 2.6 | 0.00 | 0.00 | 0.00 | 71 | 1020.3 |
| 20260903203528 | 56 | 282 | 0.9 | 1.7 | 0.00 | 0.00 | 0.00 | 72 | 1020.3 |
| 20260903203025 | 56 | 282 | 0.0 | 2.6 | 0.00 | 0.00 | 0.00 | 72 | 1020.3 |
| 20260903202526 | 57 | 282 | 0.9 | 3.5 | 0.00 | 0.00 | 0.00 | 73 | 1020.2 |
| 20260903202023 | 56 | 281 | 1.7 | 3.5 | 0.00 | 0.00 | 0.00 | 73 | 1020.1 |
| 20260903201532 | 56 | 281 | 1.7 | 3.5 | 0.00 | 0.00 | 0.00 | 73 | 1020.0 |
| 20260903201025 | 56 | 271 | 0.0 | 1.7 | 0.00 | 0.00 | 0.00 | 72 | 1020.0 |
| 20260903200526 | 57 | 271 | 0.9 | 2.6 | 0.00 | 0.00 | 0.00 | 72 | 1020.0 |
| 20260903200021 | 57 | 271 | 1.7 | 3.5 | 0.00 | 0.00 | 0.00 | 71 | 1019.9 |
| 20260903195521 | 57 | 237 | 1.7 | 3.5 | 0.00 | 0.00 | 0.00 | 71 | 1019.9 |
| 20260903195024 | 57 | 273 | 1.7 | 3.5 | 0.00 | 0.00 | 0.00 | 71 | 1019.9 |
| 20260903194524 | 57 | 278 | 0.0 | 2.6 | 0.00 | 0.00 | 0.00 | 71 | 1020.0 |
| 20260903194018 | 57 | 277 | 0.9 | 3.5 | 0.00 | 0.00 | 0.00 | 71 | 1019.9 |
| 20260903193517 | 56 | 279 | 1.7 | 3.5 | 0.00 | 0.00 | 0.00 | 72 | 1019.8 |
| 20260903193017 | 56 | 283 | 1.7 | 3.5 | 0.00 | 0.00 | 0.00 | 72 | 1019.8 |
| 20260903192521 | 56 | 287 | 0.0 | 1.7 | 0.00 | 0.00 | 0.00 | 71 | 1019.9 |
| 20260903192018 | 57 | 287 | 0.0 | 2.6 | 0.00 | 0.00 | 0.00 | 71 | 1019.8 |
| 20260903191515 | 57 | 287 | 0.0 | 3.5 | 0.00 | 0.00 | 0.00 | 71 | 1019.8 |
| 20260903191015 | 56 | 287 | 1.7 | 3.5 | 0.00 | 0.00 | 0.00 | 71 | 1019.7 |
| 20260903190516 | 56 | 314 | 0.9 | 2.6 | 0.00 | 0.00 | 0.00 | 72 | 1019.8 |
| 20260903190014 | 56 | 314 | 0.9 | 3.5 | 0.00 | 0.00 | 0.00 | 72 | 1019.8 |
| 20260903185512 | 56 | 315 | 1.7 | 3.5 | 0.00 | 0.00 | 0.00 | 72 | 1019.8 |
| 20260903185012 | 56 | 319 | 1.7 | 2.6 | 0.00 | 0.00 | 0.00 | 72 | 1019.7 |
| 20260903184511 | 57 | 303 | 1.7 | 2.6 | 0.00 | 0.00 | 0.00 | 72 | 1019.6 |
| 20260903184010 | 57 | 305 | 1.7 | 3.5 | 0.00 | 0.00 | 0.00 | 72 | 1019.5 |
| 20260903183508 | 57 | 323 | 1.7 | 2.6 | 0.00 | 0.00 | 0.00 | 72 | 1019.5 |
| 20260903183008 | 57 | 332 | 0.0 | 2.6 | 0.00 | 0.00 | 0.00 | 72 | 1019.5 |
| 20260903182510 | 58 | 331 | 1.7 | 3.5 | 0.00 | 0.00 | 0.00 | 72 | 1019.3 |
| 20260903182005 | 58 | 284 | 1.7 | 3.5 | 0.00 | 0.00 | 0.00 | 72 | 1019.2 |
| 20260903181506 | 58 | 218 | 0.0 | 1.7 | 0.00 | 0.00 | 0.00 | 71 | 1019.2 |
| 20260903181004 | 58 | 218 | 0.0 | 1.7 | 0.00 | 0.00 | 0.00 | 71 | 1019.2 |
| 20260903180506 | 58 | 207 | 0.0 | 1.7 | 0.00 | 0.00 | 0.00 | 70 | 1019.2 |
| 20260903180002 | 58 | 219 | 0.0 | 1.7 | 0.00 | 0.00 | 0.00 | 70 | 1019.1 |
| 20260903175505 | 58 | 219 | 0.0 | 1.7 | 0.00 | 0.00 | 0.00 | 70 | 1019.1 |
| 20260903175001 | 58 | 219 | 0.0 | 2.6 | 0.00 | 0.00 | 0.00 | 70 | 1019.0 |
| 20260903174602 | 58 | 168 | 0.0 | 2.6 | 0.00 | 0.00 | 0.00 | 70 | 1018.9 |
| 20260903174104 | 58 | 217 | 0.9 | 2.6 | 0.00 | 0.00 | 0.00 | 70 | 1018.8 |
| 20260903173559 | 59 | 217 | 0.9 | 2.6 | 0.00 | 0.00 | 0.00 | 70 | 1018.9 |
| 20260903173058 | 59 | 217 | 0.0 | 1.7 | 0.00 | 0.00 | 0.00 | 70 | 1018.9 |
| 20260903172559 | 59 | 217 | 0.0 | 1.7 | 0.00 | 0.00 | 0.00 | 69 | 1018.9 |
| 20260903172101 | 59 | 217 | 0.0 | 1.7 | 0.00 | 0.00 | 0.00 | 68 | 1018.7 |
| 20260903171555 | 59 | 217 | 0.0 | 3.5 | 0.00 | 0.00 | 0.00 | 67 | 1018.6 |
| 20260903171056 | 59 | 217 | 0.0 | 4.3 | 0.00 | 0.00 | 0.00 | 67 | 1018.7 |
| 20260903170554 | 59 | 164 | 0.0 | 2.6 | 0.00 | 0.00 | 0.00 | 67 | 1018.8 |
| 20260903165553 | 60 | 220 | 0.0 | 1.7 | 0.00 | 0.00 | 0.00 | 66 | 1018.7 |
| 20260903165052 | 60 | 254 | 0.0 | 2.6 | 0.00 | 0.00 | 0.00 | 66 | 1018.7 |
| 20260903164551 | 60 | 304 | 0.9 | 2.6 | 0.00 | 0.00 | 0.00 | 65 | 1018.8 |
| 20260903164051 | 60 | 146 | 0.9 | 3.5 | 0.00 | 0.00 | 0.00 | 65 | 1018.8 |
| 20260903163550 | 60 | 139 | 0.9 | 3.5 | 0.00 | 0.00 | 0.00 | 65 | 1018.8 |
| 20260903163049 | 60 | 87 | 1.7 | 3.5 | 0.00 | 0.00 | 0.00 | 65 | 1018.8 |
| 20260903162548 | 60 | 179 | 0.9 | 4.3 | 0.00 | 0.00 | 0.00 | 64 | 1018.7 |
| 20260903162048 | 61 | 192 | 0.9 | 5.2 | 0.00 | 0.00 | 0.00 | 64 | 1018.8 |
| 20260903161547 | 61 | 148 | 1.7 | 4.3 | 0.00 | 0.00 | 0.00 | 64 | 1018.9 |
| 20260903161046 | 61 | 135 | 0.9 | 5.2 | 0.00 | 0.00 | 0.00 | 64 | 1019.0 |
| 20260903160546 | 61 | 164 | 0.9 | 6.1 | 0.00 | 0.00 | 0.00 | 64 | 1018.9 |
| 20260903160046 | 61 | 174 | 1.7 | 3.5 | 0.00 | 0.00 | 0.00 | 64 | 1018.9 |
| 20260903155545 | 61 | 221 | 0.9 | 2.6 | 0.00 | 0.00 | 0.00 | 64 | 1018.9 |
| 20260903155045 | 61 | 144 | 0.9 | 3.5 | 0.00 | 0.00 | 0.00 | 64 | 1018.9 |
| 20260903154548 | 61 | 140 | 0.9 | 3.5 | 0.00 | 0.00 | 0.00 | 63 | 1019.0 |
| 20260903154044 | 61 | 134 | 0.9 | 4.3 | 0.00 | 0.00 | 0.00 | 64 | 1019.0 |
| 20260903153542 | 61 | 218 | 0.9 | 4.3 | 0.00 | 0.00 | 0.00 | 63 | 1018.9 |
| 20260903153051 | 62 | 220 | 0.9 | 2.6 | 0.00 | 0.00 | 0.00 | 63 | 1018.9 |
| 20260903152543 | 62 | 161 | 0.9 | 2.6 | 0.00 | 0.00 | 0.00 | 63 | 1018.9 |
| 20260903152042 | 62 | 144 | 0.0 | 2.6 | 0.00 | 0.00 | 0.00 | 62 | 1018.9 |
| 20260903151540 | 62 | 146 | 0.9 | 3.5 | 0.00 | 0.00 | 0.00 | 62 | 1018.7 |
| 20260903151037 | 63 | 193 | 0.0 | 6.1 | 0.00 | 0.00 | 0.00 | 62 | 1018.6 |
| 20260903150540 | 63 | 167 | 1.7 | 6.1 | 0.00 | 0.00 | 0.00 | 61 | 1018.6 |
| 20260903150035 | 63 | 219 | 1.7 | 7.0 | 0.00 | 0.00 | 0.00 | 61 | 1018.5 |
| 20260903145537 | 63 | 209 | 1.7 | 6.1 | 0.00 | 0.00 | 0.00 | 61 | 1018.5 |
| 20260903145037 | 63 | 213 | 1.7 | 7.8 | 0.00 | 0.00 | 0.00 | 61 | 1018.4 |
| 20260903144535 | 63 | 213 | 2.6 | 7.8 | 0.00 | 0.00 | 0.00 | 61 | 1018.3 |
| 20260903144036 | 63 | 213 | 0.9 | 7.8 | 0.00 | 0.00 | 0.00 | 61 | 1018.4 |
| 20260903143536 | 63 | 199 | 2.6 | 7.8 | 0.00 | 0.00 | 0.00 | 60 | 1018.4 |
| 20260903143042 | 63 | 219 | 2.6 | 5.2 | 0.00 | 0.00 | 0.00 | 60 | 1018.4 |
| 20260903142532 | 63 | 220 | 1.7 | 4.3 | 0.00 | 0.00 | 0.00 | 60 | 1018.2 |
| 20260903142032 | 63 | 199 | 0.9 | 4.3 | 0.00 | 0.00 | 0.00 | 60 | 1018.3 |
| 20260903141537 | 63 | 190 | 0.9 | 4.3 | 0.00 | 0.00 | 0.00 | 60 | 1018.2 |
| 20260903141028 | 63 | 240 | 0.0 | 4.3 | 0.00 | 0.00 | 0.00 | 60 | 1018.1 |
| 20260903140527 | 63 | 237 | 1.7 | 4.3 | 0.00 | 0.00 | 0.00 | 60 | 1018.1 |
| 20260903140028 | 63 | 244 | 2.6 | 5.2 | 0.00 | 0.00 | 0.00 | 60 | 1018.0 |
| 20260903135526 | 63 | 208 | 1.7 | 4.3 | 0.00 | 0.00 | 0.00 | 60 | 1017.9 |
| 20260903135026 | 63 | 190 | 0.9 | 4.3 | 0.00 | 0.00 | 0.00 | 60 | 1017.9 |
| 20260903134526 | 63 | 259 | 0.9 | 5.2 | 0.00 | 0.00 | 0.00 | 60 | 1017.8 |
| 20260903134025 | 63 | 210 | 1.7 | 5.2 | 0.00 | 0.00 | 0.00 | 60 | 1017.7 |
| 20260903133525 | 64 | 217 | 0.9 | 3.5 | 0.00 | 0.00 | 0.00 | 59 | 1017.7 |
| 20260903133026 | 64 | 198 | 1.7 | 4.3 | 0.00 | 0.00 | 0.00 | 58 | 1017.9 |
| 20260903132526 | 64 | 211 | 0.0 | 2.6 | 0.00 | 0.00 | 0.00 | 58 | 1017.9 |
| 20260903132024 | 65 | 214 | 0.0 | 2.6 | 0.00 | 0.00 | 0.00 | 58 | 1017.8 |
| 20260903131523 | 65 | 237 | 0.9 | 4.3 | 0.00 | 0.00 | 0.00 | 58 | 1017.7 |
| 20260903131025 | 65 | 198 | 0.9 | 4.3 | 0.00 | 0.00 | 0.00 | 58 | 1017.6 |
| 20260903130525 | 65 | 249 | 2.6 | 4.3 | 0.00 | 0.00 | 0.00 | 58 | 1017.5 |
| 20260903130022 | 65 | 255 | 1.7 | 3.5 | 0.00 | 0.00 | 0.00 | 59 | 1017.6 |
| 20260903125521 | 65 | 254 | 0.0 | 4.3 | 0.00 | 0.00 | 0.00 | 56 | 1017.6 |
| 20260903125024 | 66 | 254 | 0.9 | 6.1 | 0.00 | 0.00 | 0.00 | 55 | 1017.5 |
| 20260903124519 | 66 | 236 | 2.6 | 6.1 | 0.00 | 0.00 | 0.00 | 55 | 1017.3 |
| 20260903124020 | 66 | 244 | 2.6 | 6.1 | 0.00 | 0.00 | 0.00 | 54 | 1017.2 |
| 20260903123518 | 66 | 274 | 3.5 | 5.2 | 0.00 | 0.00 | 0.00 | 53 | 1017.1 |
| 20260903123018 | 66 | 244 | 1.7 | 4.3 | 0.00 | 0.00 | 0.00 | 52 | 1017.1 |
| 20260903122518 | 66 | 273 | 1.7 | 2.6 | 0.00 | 0.00 | 0.00 | 52 | 1017.1 |
| 20260903122017 | 67 | 267 | 0.9 | 3.5 | 0.00 | 0.00 | 0.00 | 51 | 1017.1 |
| 20260903121516 | 67 | 273 | 1.7 | 6.1 | 0.00 | 0.00 | 0.00 | 51 | 1016.9 |
| 20260903121015 | 67 | 254 | 2.6 | 6.1 | 0.00 | 0.00 | 0.00 | 51 | 1016.8 |
| 20260903120515 | 67 | 252 | 1.7 | 4.3 | 0.00 | 0.00 | 0.00 | 51 | 1016.8 |
| 20260903120015 | 67 | 254 | 2.6 | 4.3 | 0.00 | 0.00 | 0.00 | 51 | 1016.8 |
| 20260903115515 | 67 | 271 | 0.9 | 1.7 | 0.00 | 0.00 | 0.00 | 51 | 1016.9 |
| 20260903115015 | 68 | 293 | 0.0 | 0.9 | 0.00 | 0.00 | 0.00 | 50 | 1016.8 |
| 20260903114515 | 68 | 293 | 0.0 | 6.1 | 0.00 | 0.00 | 0.00 | 50 | 1016.9 |
| 20260903114013 | 68 | 293 | 1.7 | 7.0 | 0.00 | 0.00 | 0.00 | 49 | 1016.7 |
| 20260903113512 | 68 | 283 | 3.5 | 7.8 | 0.00 | 0.00 | 0.00 | 48 | 1016.6 |
| 20260903113012 | 69 | 263 | 3.5 | 7.8 | 0.00 | 0.00 | 0.00 | 48 | 1016.4 |
| 20260903112511 | 69 | 288 | 3.5 | 7.0 | 0.00 | 0.00 | 0.00 | 47 | 1016.3 |
| 20260903112010 | 69 | 277 | 4.3 | 7.0 | 0.00 | 0.00 | 0.00 | 47 | 1016.2 |
| 20260903111513 | 69 | 262 | 3.5 | 7.0 | 0.00 | 0.00 | 0.00 | 47 | 1016.2 |
| 20260903111009 | 69 | 261 | 2.6 | 7.0 | 0.00 | 0.00 | 0.00 | 47 | 1016.2 |
| 20260903110511 | 70 | 248 | 1.7 | 7.8 | 0.00 | 0.00 | 0.00 | 46 | 1016.1 |
| 20260903110010 | 70 | 257 | 2.6 | 7.8 | 0.00 | 0.00 | 0.00 | 46 | 1016.0 |
| 20260903105507 | 70 | 238 | 3.5 | 7.8 | 0.00 | 0.00 | 0.00 | 46 | 1015.9 |
| 20260903105006 | 70 | 269 | 3.5 | 7.8 | 0.00 | 0.00 | 0.00 | 46 | 1015.9 |
| 20260903104509 | 70 | 246 | 3.5 | 9.6 | 0.00 | 0.00 | 0.00 | 47 | 1015.7 |
| 20260903104005 | 70 | 232 | 4.3 | 8.7 | 0.00 | 0.00 | 0.00 | 46 | 1015.7 |
| 20260903103507 | 70 | 282 | 3.5 | 7.0 | 0.00 | 0.00 | 0.00 | 46 | 1015.7 |
| 20260903103004 | 71 | 266 | 3.5 | 7.8 | 0.00 | 0.00 | 0.00 | 46 | 1015.6 |
| 20260903102504 | 71 | 288 | 4.3 | 8.7 | 0.00 | 0.00 | 0.00 | 45 | 1015.5 |
| 20260903102003 | 71 | 274 | 4.3 | 10.4 | 0.00 | 0.00 | 0.00 | 45 | 1015.4 |
| 20260903101502 | 71 | 231 | 4.3 | 10.4 | 0.00 | 0.00 | 0.00 | 46 | 1015.2 |
| 20260903101101 | 71 | 280 | 5.2 | 8.7 | 0.00 | 0.00 | 0.00 | 46 | 1015.1 |
| 20260903100600 | 71 | 232 | 4.3 | 8.7 | 0.00 | 0.00 | 0.00 | 46 | 1015.1 |
| 20260903100100 | 71 | 281 | 3.5 | 10.4 | 0.00 | 0.00 | 0.00 | 46 | 1015.1 |
| 20260903095559 | 71 | 269 | 5.2 | 10.4 | 0.00 | 0.00 | 0.00 | 47 | 1015.0 |
| 20260903095105 | 71 | 229 | 4.3 | 9.6 | 0.00 | 0.00 | 0.00 | 47 | 1014.9 |
| 20260903094600 | 71 | 293 | 4.3 | 13.0 | 0.00 | 0.00 | 0.00 | 47 | 1014.9 |
| 20260903094057 | 71 | 259 | 5.2 | 13.0 | 0.00 | 0.00 | 0.00 | 47 | 1014.8 |
| 20260903093557 | 71 | 277 | 6.1 | 13.0 | 0.00 | 0.00 | 0.00 | 47 | 1014.7 |
| 20260903093103 | 71 | 292 | 6.1 | 9.6 | 0.00 | 0.00 | 0.00 | 48 | 1014.7 |
| 20260903092555 | 72 | 263 | 4.3 | 9.6 | 0.00 | 0.00 | 0.00 | 48 | 1014.6 |
| 20260903092054 | 72 | 287 | 5.2 | 9.6 | 0.00 | 0.00 | 0.00 | 48 | 1014.5 |
| 20260903091554 | 72 | 256 | 4.3 | 8.7 | 0.00 | 0.00 | 0.00 | 47 | 1014.5 |
| 20260903091053 | 72 | 266 | 3.5 | 11.3 | 0.00 | 0.00 | 0.00 | 47 | 1014.4 |
| 20260903090555 | 72 | 284 | 4.3 | 10.4 | 0.00 | 0.00 | 0.00 | 47 | 1014.2 |
| 20260903090051 | 72 | 238 | 5.2 | 10.4 | 0.00 | 0.00 | 0.00 | 46 | 1014.1 |
| 20260903085551 | 73 | 238 | 5.2 | 10.4 | 0.00 | 0.00 | 0.00 | 46 | 1014.1 |
| 20260903085050 | 73 | 263 | 3.5 | 11.3 | 0.00 | 0.00 | 0.00 | 45 | 1013.9 |
| 20260903084555 | 73 | 273 | 4.3 | 13.9 | 0.00 | 0.00 | 0.00 | 45 | 1013.8 |
| 20260903084049 | 73 | 227 | 7.0 | 13.9 | 0.00 | 0.00 | 0.00 | 45 | 1013.7 |
| 20260903083547 | 73 | 271 | 6.1 | 12.2 | 0.00 | 0.00 | 0.00 | 45 | 1013.5 |
| 20260903083055 | 73 | 285 | 7.0 | 12.2 | 0.00 | 0.00 | 0.00 | 45 | 1013.3 |
| 20260903082547 | 74 | 273 | 6.1 | 11.3 | 0.00 | 0.00 | 0.00 | 44 | 1013.2 |
| 20260903082047 | 74 | 261 | 6.1 | 10.4 | 0.00 | 0.00 | 0.00 | 44 | 1013.1 |
| 20260903081603 | 74 | 281 | 6.1 | 13.0 | 0.00 | 0.00 | 0.00 | 43 | 1012.9 |
| 20260903081046 | 75 | 260 | 6.1 | 13.0 | 0.00 | 0.00 | 0.00 | 42 | 1012.8 |
| 20260903080544 | 75 | 239 | 5.2 | 12.2 | 0.00 | 0.00 | 0.00 | 42 | 1012.8 |
| 20260903080045 | 75 | 240 | 4.3 | 12.2 | 0.00 | 0.00 | 0.00 | 42 | 1012.7 |
| 20260903075544 | 75 | 282 | 7.0 | 12.2 | 0.00 | 0.00 | 0.00 | 41 | 1012.7 |
| 20260903075044 | 75 | 290 | 3.5 | 8.7 | 0.00 | 0.00 | 0.00 | 40 | 1012.5 |
| 20260903074548 | 75 | 236 | 3.5 | 8.7 | 0.00 | 0.00 | 0.00 | 40 | 1012.4 |
| 20260903074044 | 76 | 274 | 2.6 | 8.7 | 0.00 | 0.00 | 0.00 | 38 | 1012.2 |
| 20260903073544 | 76 | 241 | 2.6 | 8.7 | 0.00 | 0.00 | 0.00 | 38 | 1012.1 |
| 20260903073044 | 76 | 242 | 3.5 | 8.7 | 0.00 | 0.00 | 0.00 | 37 | 1012.0 |
| 20260903072546 | 77 | 211 | 1.7 | 8.7 | 0.00 | 0.00 | 0.00 | 38 | 1012.0 |
| 20260903072044 | 78 | 239 | 1.7 | 5.2 | 0.00 | 0.00 | 0.00 | 38 | 1012.0 |
| 20260903071551 | 78 | 266 | 1.7 | 6.1 | 0.00 | 0.00 | 0.00 | 37 | 1012.0 |
| 20260903071043 | 78 | 250 | 2.6 | 6.1 | 0.00 | 0.00 | 0.00 | 36 | 1011.9 |
| 20260903070545 | 79 | 226 | 1.7 | 9.6 | 0.00 | 0.00 | 0.00 | 35 | 1011.7 |
| 20260903070042 | 79 | 254 | 3.5 | 9.6 | 0.00 | 0.00 | 0.00 | 35 | 1011.7 |
| 20260903065543 | 79 | 246 | 3.5 | 9.6 | 0.00 | 0.00 | 0.00 | 34 | 1011.5 |
| 20260903065042 | 80 | 275 | 5.2 | 9.6 | 0.00 | 0.00 | 0.00 | 34 | 1011.5 |
| 20260903064548 | 80 | 280 | 3.5 | 9.6 | 0.00 | 0.00 | 0.00 | 34 | 1011.4 |
| 20260903064042 | 80 | 302 | 3.5 | 9.6 | 0.00 | 0.00 | 0.00 | 34 | 1011.3 |
| 20260903063541 | 80 | 242 | 3.5 | 9.6 | 0.00 | 0.00 | 0.00 | 34 | 1011.3 |
| 20260903063048 | 81 | 241 | 1.7 | 9.6 | 0.00 | 0.00 | 0.00 | 34 | 1011.1 |
| 20260903062542 | 81 | 268 | 5.2 | 9.6 | 0.00 | 0.00 | 0.00 | 33 | 1011.1 |
| 20260903062042 | 81 | 237 | 3.5 | 10.4 | 0.00 | 0.00 | 0.00 | 34 | 1011.0 |
| 20260903061542 | 82 | 258 | 4.3 | 10.4 | 0.00 | 0.00 | 0.00 | 33 | 1011.1 |
| 20260903061041 | 82 | 231 | 2.6 | 8.7 | 0.00 | 0.00 | 0.00 | 32 | 1011.1 |
| 20260903060541 | 82 | 240 | 2.6 | 8.7 | 0.00 | 0.00 | 0.00 | 32 | 1011.0 |
| 20260903060043 | 82 | 244 | 3.5 | 9.6 | 0.00 | 0.00 | 0.00 | 33 | 1011.0 |
| 20260903055544 | 82 | 229 | 2.6 | 9.6 | 0.00 | 0.00 | 0.00 | 32 | 1010.9 |
| 20260903055040 | 82 | 244 | 1.7 | 7.8 | 0.00 | 0.00 | 0.00 | 31 | 1010.9 |
| 20260903054540 | 82 | 251 | 0.9 | 7.8 | 0.00 | 0.00 | 0.00 | 31 | 1010.8 |
| 20260903054040 | 82 | 231 | 2.6 | 7.8 | 0.00 | 0.00 | 0.00 | 31 | 1010.7 |
| 20260903053539 | 82 | 215 | 3.5 | 8.7 | 0.00 | 0.00 | 0.00 | 30 | 1010.8 |
| 20260903053040 | 82 | 255 | 3.5 | 8.7 | 0.00 | 0.00 | 0.00 | 30 | 1010.7 |
| 20260903052540 | 82 | 200 | 3.5 | 7.8 | 0.00 | 0.00 | 0.00 | 29 | 1010.6 |
| 20260903052040 | 82 | 229 | 3.5 | 9.6 | 0.00 | 0.00 | 0.00 | 30 | 1010.6 |
| 20260903051540 | 82 | 220 | 3.5 | 13.0 | 0.00 | 0.00 | 0.00 | 30 | 1010.5 |
| 20260903051043 | 82 | 277 | 5.2 | 13.0 | 0.00 | 0.00 | 0.00 | 31 | 1010.5 |
| 20260903050539 | 82 | 246 | 6.1 | 10.4 | 0.00 | 0.00 | 0.00 | 30 | 1010.4 |
| 20260903050045 | 82 | 238 | 6.1 | 13.9 | 0.00 | 0.00 | 0.00 | 30 | 1010.3 |
| 20260903045539 | 82 | 217 | 4.3 | 13.9 | 0.00 | 0.00 | 0.00 | 29 | 1010.3 |
| 20260903045041 | 83 | 200 | 3.5 | 8.7 | 0.00 | 0.00 | 0.00 | 28 | 1010.2 |
| 20260903044545 | 83 | 227 | 2.6 | 8.7 | 0.00 | 0.00 | 0.00 | 29 | 1010.1 |
| 20260903044038 | 83 | 168 | 4.3 | 12.2 | 0.00 | 0.00 | 0.00 | 28 | 1010.1 |
| 20260903043539 | 83 | 226 | 3.5 | 12.2 | 0.00 | 0.00 | 0.00 | 28 | 1010.1 |
| 20260903043037 | 83 | 208 | 4.3 | 10.4 | 0.00 | 0.00 | 0.00 | 28 | 1010.1 |
| 20260903042537 | 83 | 234 | 3.5 | 9.6 | 0.00 | 0.00 | 0.00 | 28 | 1010.1 |
| 20260903042037 | 83 | 206 | 3.5 | 12.2 | 0.00 | 0.00 | 0.00 | 28 | 1010.0 |
| 20260903041544 | 83 | 223 | 5.2 | 13.9 | 0.00 | 0.00 | 0.00 | 28 | 1009.8 |
| 20260903041037 | 83 | 167 | 5.2 | 13.0 | 0.00 | 0.00 | 0.00 | 28 | 1009.7 |
| 20260903040535 | 83 | 236 | 3.5 | 7.8 | 0.00 | 0.00 | 0.00 | 30 | 1009.7 |
| 20260903040035 | 83 | 244 | 2.6 | 7.8 | 0.00 | 0.00 | 0.00 | 30 | 1009.6 |
| 20260903035534 | 83 | 191 | 3.5 | 8.7 | 0.00 | 0.00 | 0.00 | 29 | 1009.6 |